Location: Limerick
(52.6650°N, 8.6230°W)
Time: 14:15:00
(UTC+01:00)

Amateur Radio Satellites - All Passes

Search period start: 29 March 2017 13:45
Search period end: 30 March 2017 13:45
Location: Limerick, 52.6650°N, 8.6230°W

Satellite Date Start Highest point End Downlink Frequencies (MHz)
Time Altitude Azimuth
SPROUT 29 Mar 13:49:58 13:54:09 49° 100° (E) 13:58:18 437.525
RS-15 29 Mar 13:51:05 14:03:02 69° 122° (ESE) 14:15:15 29.354- 29.394
LO-87 29 Mar 13:58:54 14:01:41 21° 298° (WNW) 14:04:27 145.935 - 145.965
Oscar 19 29 Mar 14:03:19 14:08:27 84° 254° (WSW) 14:13:37 437.125/150
ESTCUBE 1 29 Mar 14:05:00 14:09:17 42° 293° (WNW) 14:13:32 437.505/2401.250
PCSat 29 Mar 14:18:18 14:22:03 18° 352° (N) 14:25:48 145.827
ITAMSAT 1 29 Mar 14:19:05 14:23:04 22° 55° (NE) 14:27:02 435.822/435.867
DX 1 29 Mar 14:31:19 14:35:42 60° 102° (ESE) 14:40:02 434.975-435.025
SO-50 29 Mar 14:35:20 14:38:35 19° 115° (ESE) 14:41:49 436.795
50 SAT 29 Mar 14:38:39 14:42:09 66° 287° (WNW) 14:45:38 437.505
Gurwin Techsat 1B 29 Mar 14:41:34 14:46:52 70° 257° (WSW) 14:52:13 435.225
ITUPSAT 1 29 Mar 15:03:46 15:04:37 10° 83° (E) 15:05:28 437.325
VELOX 1 29 Mar 15:04:33 15:08:38 35° 296° (WNW) 15:12:40 145.980
UKube-1 29 Mar 15:05:18 15:09:41 90° 129° (SE) 15:14:01 .
AO-7 29 Mar 15:05:44 15:13:49 59° 59° (ENE) 15:21:55 .
SPROUT 29 Mar 15:26:22 15:29:49 24° 299° (WNW) 15:33:15 437.525
Oscar 19 29 Mar 15:45:44 15:48:35 15° 274° (W) 15:51:27 437.125/150
ITAMSAT 1 29 Mar 15:56:47 16:02:01 78° 255° (WSW) 16:07:17 435.822/435.867
YUBILEINY 29 Mar 16:00:59 16:03:21 11° 30° (NNE) 16:05:44 435.215
PCSat 29 Mar 16:03:13 16:07:25 22° 19° (NNE) 16:11:34 145.827
RS-15 29 Mar 16:04:00 16:16:08 61° 331° (NNW) 16:28:24 29.354- 29.394
DX 1 29 Mar 16:08:10 16:11:32 22° 301° (WNW) 16:14:54 434.975-435.025
MOZHAYETS 4 29 Mar 16:10:41 16:14:04 20° 90° (E) 16:17:28
SO-50 29 Mar 16:13:53 16:18:32 84° 315° (NW) 16:23:08 436.795
BEESAT 29 Mar 16:20:20 16:24:57 48° 100° (E) 16:29:33 436.000
Gurwin Techsat 1B 29 Mar 16:25:37 16:27:49 12° 277° (W) 16:30:03 435.225
CUTE-I 29 Mar 16:33:34 16:35:21 12° 44° (NE) 16:37:08 437.470
ITUPSAT 1 29 Mar 16:38:38 16:43:24 67° 103° (ESE) 16:48:08 437.325
UKube-1 29 Mar 16:42:33 16:45:06 16° 306° (NW) 16:47:40 .
AO-7 29 Mar 16:59:02 17:06:53 44° 261° (W) 17:14:46 .
O/OREOS (USA 219) 29 Mar 17:06:05 17:10:05 32° 107° (ESE) 17:14:09 437.305
KKS-1 29 Mar 17:06:30 17:09:22 16° 89° (E) 17:12:13 437.445
LilacSat-2 29 Mar 17:09:39 17:11:06 12° 56° (NE) 17:12:33 437.200
CUBESAT XI-V 29 Mar 17:11:28 17:14:22 16° 87° (E) 17:17:16 437.345
NUDT-PHONESAT 29 Mar 17:18:55 17:20:07 11° 56° (NE) 17:21:19 437.300
DOVE 4 29 Mar 17:27:08 17:31:19 28° 60° (ENE) 17:35:40 437.250
XW-2D 29 Mar 17:29:17 17:31:48 17° 60° (ENE) 17:34:19 145.860 - 145.880
KAITUO 1B 29 Mar 17:29:20 17:31:21 14° 58° (ENE) 17:33:22 145.475/437.950
STARS 29 Mar 17:34:10 17:36:37 14° 88° (E) 17:39:02 437.465
XW-2B 29 Mar 17:35:06 17:37:47 19° 61° (ENE) 17:40:29 145.730 - 145.750
ITAMSAT 1 29 Mar 17:39:43 17:42:23 14° 275° (W) 17:45:03 435.822/435.867
HO-68 29 Mar 17:43:35 17:48:26 20° 42° (NE) 17:53:18 435.675
XW-2C 29 Mar 17:45:01 17:48:03 23° 63° (ENE) 17:51:04 145.795 - 145.815
PCSat 29 Mar 17:46:40 17:52:01 52° 43° (NE) 17:57:19 145.827
MOZHAYETS 4 29 Mar 17:47:08 17:51:39 61° 289° (WNW) 17:56:08
SO-50 29 Mar 17:55:41 17:59:36 27° 336° (NNW) 18:03:29 436.795
YUBILEINY 29 Mar 17:56:02 18:03:48 34° 60° (ENE) 18:11:32 435.215
BEESAT 29 Mar 17:58:28 18:02:34 29° 299° (WNW) 18:06:38 436.000
CUTE-I 29 Mar 18:09:05 18:14:12 47° 65° (ENE) 18:19:22 437.470
ITUPSAT 1 29 Mar 18:17:10 18:20:50 22° 303° (WNW) 18:24:27 437.325
RS-15 29 Mar 18:19:31 18:31:24 48° 4° (N) 18:43:08 29.354- 29.394
XW-2F 29 Mar 18:33:47 18:37:32 66° 73° (ENE) 18:41:18 145.980 - 146.000
LilacSat-2 29 Mar 18:40:57 18:44:46 84° 76° (ENE) 18:48:36 437.200
KKS-1 29 Mar 18:41:58 18:46:28 75° 287° (WNW) 18:50:56 437.445
O/OREOS (USA 219) 29 Mar 18:45:03 18:49:24 43° 308° (NW) 18:53:48 437.305
CUBESAT XI-V 29 Mar 18:47:40 18:52:20 80° 287° (WNW) 18:57:00 437.345
NUDT-PHONESAT 29 Mar 18:49:41 18:53:25 83° 75° (ENE) 18:57:10 437.300
SEEDS 29 Mar 19:00:34 19:03:16 17° 58° (ENE) 19:05:59 437.485
KAITUO 1B 29 Mar 19:01:10 19:04:54 75° 257° (WSW) 19:08:38 145.475/437.950
XW-2D 29 Mar 19:01:53 19:05:37 59° 258° (WSW) 19:09:23 145.860 - 145.880
DOVE 4 29 Mar 19:03:57 19:08:42 54° 261° (W) 19:13:46 437.250
XW-2B 29 Mar 19:07:57 19:11:41 52° 260° (W) 19:15:24 145.730 - 145.750
STARS 29 Mar 19:09:06 19:13:35 83° 286° (WNW) 19:17:59 437.465
CUTE 1.7 + AOD 2 29 Mar 19:12:29 19:16:07 29° 64° (ENE) 19:19:45 437.475
XW-2C 29 Mar 19:18:28 19:22:05 40° 262° (W) 19:25:41 145.795 - 145.815
ZACube-1 29 Mar 19:24:40 19:25:41 11° 51° (NE) 19:26:42 437.345
MOZHAYETS 4 29 Mar 19:26:19 19:27:56 12° 310° (NW) 19:29:34
HO-68 29 Mar 19:27:56 19:34:57 64° 65° (ENE) 19:42:01 435.675
CUBEBUG 2 29 Mar 19:28:26 19:32:16 25° 61° (ENE) 19:36:04 437.445
PCSat 29 Mar 19:30:19 19:35:19 38° 244° (WSW) 19:40:18 145.827
SO-50 29 Mar 19:38:14 19:41:27 18° 1° (N) 19:44:37 436.795
XW-2A 29 Mar 19:44:03 19:47:28 65° 73° (ENE) 19:50:54 145.665 - 145.685
AO-73 29 Mar 19:49:15 19:51:53 16° 56° (NE) 19:54:28 145.935
CUTE-I 29 Mar 19:49:35 19:54:26 34° 265° (W) 19:59:19 437.470
YUBILEINY 29 Mar 19:52:47 20:01:29 75° 264° (W) 20:10:08 435.215
M-CUBED/EXP-1 PRIME 29 Mar 19:59:54 20:04:18 40° 103° (ESE) 20:08:42 437.505
AAUSAT CUBESAT 2 29 Mar 20:09:19 20:13:04 36° 67° (ENE) 20:16:51 437.432
XW-2F 29 Mar 20:10:05 20:12:07 14° 272° (W) 20:14:09 145.980 - 146.000
LilacSat-2 29 Mar 20:18:24 20:19:38 11° 274° (W) 20:20:51 437.200
AO-85 29 Mar 20:18:31 20:20:00 12° 112° (ESE) 20:21:28 145.980
KKS-1 29 Mar 20:20:02 20:22:18 14° 308° (NW) 20:24:33 437.445
UWE-3 29 Mar 20:23:26 20:27:51 46° 68° (ENE) 20:32:12 435.000/436.395/437.385
CUBESAT XI-V 29 Mar 20:26:24 20:29:00 15° 307° (NW) 20:31:38 437.345
NUDT-PHONESAT 29 Mar 20:26:45 20:27:54 11° 273° (W) 20:29:02 437.300
Tancredo 1 29 Mar 20:27:12 20:28:12 11° 139° (SE) 20:29:12 437.200
O/OREOS (USA 219) 29 Mar 20:28:07 20:30:05 12° 331° (NNW) 20:32:02 437.305
RS-15 29 Mar 20:33:54 20:46:20 69° 36° (NE) 20:58:20 29.354- 29.394
SEEDS 29 Mar 20:34:21 20:38:30 73° 258° (WSW) 20:42:41 437.485
ISS 29 Mar 20:41:29 20:43:10 13° 141° (SE) 20:44:52 437.550
Oscar 11 29 Mar 20:43:37 20:47:32 35° 66° (ENE) 20:51:29 .
STARS 29 Mar 20:46:46 20:49:16 15° 307° (NW) 20:51:44 437.465
CUTE 1.7 + AOD 2 29 Mar 20:47:56 20:51:52 38° 263° (W) 20:55:49 437.475
ZACube-1 29 Mar 20:56:41 21:01:06 57° 70° (ENE) 21:05:27 437.345
STRAND 1 29 Mar 20:58:06 21:03:10 57° 101° (E) 21:08:11 437.568
DELFI C3 29 Mar 21:00:20 21:03:03 18° 59° (ENE) 21:05:46 145.870
CUBEBUG 2 29 Mar 21:03:57 21:08:37 56° 260° (W) 21:13:14 437.445
HO-68 29 Mar 21:16:45 21:23:09 34° 266° (W) 21:29:35 435.675
XW-2A 29 Mar 21:19:12 21:20:39 12° 271° (W) 21:22:07 145.665 - 145.685
SO-50 29 Mar 21:19:19 21:23:16 28° 25° (NNE) 21:27:10 436.795
AO-73 29 Mar 21:23:01 21:27:31 89° 84° (E) 21:31:57 145.935
M-CUBED/EXP-1 PRIME 29 Mar 21:34:26 21:38:40 36° 302° (WNW) 21:42:57 437.505
AAUSAT CUBESAT 2 29 Mar 21:45:02 21:48:36 28° 266° (W) 21:52:13 437.432
YUBILEINY 29 Mar 21:51:04 21:56:46 20° 288° (WNW) 22:02:30 435.215
AO-85 29 Mar 21:55:28 21:59:44 71° 130° (SE) 22:03:47 145.980
UWE-3 29 Mar 22:00:33 22:04:30 27° 267° (W) 22:08:23 435.000/436.395/437.385
Tancredo 1 29 Mar 22:00:41 22:03:40 39° 158° (SSE) 22:06:41 437.200
ISS 29 Mar 22:15:54 22:19:03 44° 160° (SSE) 22:22:12 437.550
BEESAT 3 29 Mar 22:16:46 22:19:31 18° 115° (ESE) 22:22:18 437.485
Oscar 11 29 Mar 22:19:50 22:23:42 32° 265° (W) 22:27:36 .
DELFI C3 29 Mar 22:33:35 22:37:27 60° 258° (WSW) 22:41:23 145.870
ZACube-1 29 Mar 22:34:17 22:37:43 21° 269° (W) 22:41:07 437.345
STRAND 1 29 Mar 22:37:46 22:42:04 28° 301° (WNW) 22:46:21 437.568
BEESAT 2 29 Mar 22:40:44 22:42:51 14° 112° (ESE) 22:44:59 435.950
PRISM 29 Mar 22:42:14 22:45:53 28° 95° (E) 22:49:31 437.425
TIGRISAT 29 Mar 22:46:28 22:49:32 18° 89° (E) 22:52:32 435.000
RS-15 29 Mar 22:46:58 22:58:46 56° 243° (WSW) 23:10:07 29.354- 29.394
UNISAT 6 29 Mar 22:57:20 23:00:57 24° 92° (E) 23:04:29 437.425
VELOX 1 29 Mar 22:57:46 22:59:22 12° 51° (NE) 23:01:00 145.980
SO-50 29 Mar 22:59:43 23:04:15 88° 235° (SW) 23:08:46 436.795
AO-73 29 Mar 23:02:10 23:04:23 13° 274° (W) 23:06:35 145.935
FO-29 29 Mar 23:03:06 23:07:37 22° 86° (E) 23:11:47 435.910
LO-87 29 Mar 23:06:28 23:09:54 43° 70° (ENE) 23:13:24 145.935 - 145.965
SPROUT 29 Mar 23:15:31 23:17:40 14° 54° (NE) 23:19:49 437.525
ESTCUBE 1 29 Mar 23:33:17 23:37:37 52° 69° (ENE) 23:41:59 437.505/2401.250
Tancredo 1 29 Mar 23:36:27 23:39:37 75° 177° (S) 23:42:48 437.200
AO-85 29 Mar 23:36:54 23:40:29 27° 331° (NNW) 23:43:57 145.980
50 SAT 29 Mar 23:46:23 23:48:14 14° 58° (ENE) 23:50:06 437.505
ISS 29 Mar 23:52:05 23:55:22 76° 180° (S) 23:58:39 437.550
BEESAT 3 29 Mar 23:52:43 23:56:40 73° 315° (NW) 00:00:42 437.485
O/OREOS (USA 219) 29 Mar 23:53:14 23:53:41 10° 24° (NNE) 23:54:09 437.305
DX 1 29 Mar 23:58:00 00:00:56 18° 56° (NE) 00:03:53 434.975-435.025
NANOSAT C BR1 30 Mar 00:14:52 00:16:54 13° 87° (E) 00:18:55 145.865
BEESAT 2 30 Mar 00:16:01 00:20:00 87° 132° (SE) 00:24:05 435.950
PRISM 30 Mar 00:17:23 00:21:15 37° 294° (WNW) 00:25:06 437.425
EO-79 30 Mar 00:21:10 00:23:52 16° 89° (E) 00:26:34 145.935-145.965
TIGRISAT 30 Mar 00:22:17 00:26:42 64° 289° (WNW) 00:30:58 435.000
UKube-1 30 Mar 00:30:18 00:33:47 24° 60° (ENE) 00:37:17 .
VELOX 1 30 Mar 00:30:37 00:34:59 63° 71° (ENE) 00:39:24 145.980
UNISAT 6 30 Mar 00:33:39 00:37:56 48° 292° (WNW) 00:42:06 437.425
LO-87 30 Mar 00:40:56 00:43:35 19° 269° (W) 00:46:15 145.935 - 145.965
SO-50 30 Mar 00:41:18 00:44:06 16° 247° (WSW) 00:46:53 436.795
FO-29 30 Mar 00:47:24 00:53:34 75° 289° (WNW) 00:59:01 435.910
SPROUT 30 Mar 00:48:35 00:52:54 79° 73° (ENE) 00:57:14 437.525
POLYITAN 1 30 Mar 00:49:42 00:53:27 29° 95° (E) 00:57:08 437.675
QB50P2 30 Mar 00:54:24 00:58:20 34° 96° (E) 01:02:11 145.880/145.840
DUCHIFAT 1 30 Mar 01:01:11 01:04:59 31° 96° (E) 01:08:43 145.980
RS-15 30 Mar 01:02:01 01:08:10 16° 269° (W) 01:14:14 29.354- 29.394
AIST 2D 30 Mar 01:02:57 01:06:27 68° 102° (ESE) 01:09:54 435.315
BUGSAT 1 30 Mar 01:04:13 01:06:20 14° 87° (E) 01:08:26 437.445
ESTCUBE 1 30 Mar 01:11:08 01:14:43 23° 268° (W) 01:18:19 437.505/2401.250
Tancredo 1 30 Mar 01:12:31 01:15:37 50° 198° (SSW) 01:18:43 437.200
50 SAT 30 Mar 01:17:24 01:20:50 66° 258° (WSW) 01:24:19 437.505
AO-85 30 Mar 01:19:45 01:22:06 15° 355° (N) 01:24:25 145.980
ISS 30 Mar 01:28:32 01:31:43 46° 199° (SSW) 01:34:53 437.550
O/OREOS (USA 219) 30 Mar 01:30:30 01:34:38 31° 47° (NE) 01:38:45 437.305
BEESAT 3 30 Mar 01:31:48 01:34:55 21° 337° (NNW) 01:38:04 437.485
DX 1 30 Mar 01:32:16 01:36:37 76° 255° (WSW) 01:41:02 434.975-435.025
NANOSAT C BR1 30 Mar 01:48:58 01:53:14 85° 286° (WNW) 01:57:27 145.865
BEESAT 2 30 Mar 01:54:57 01:58:17 24° 334° (NNW) 02:01:40 435.950
EO-79 30 Mar 01:55:53 02:00:07 68° 288° (WNW) 02:04:19 145.935-145.965
BEESAT 30 Mar 01:56:26 01:59:51 20° 55° (NE) 02:03:15 436.000
TIGRISAT 30 Mar 02:00:58 02:02:31 12° 309° (NW) 02:04:03 435.000
UKube-1 30 Mar 02:05:22 02:09:33 50° 259° (W) 02:13:49 .
VELOX 1 30 Mar 02:08:42 02:11:52 19° 270° (W) 02:15:04 145.980
Oscar 19 30 Mar 02:09:17 02:13:19 22° 90° (E) 02:17:20 437.125/150
ITUPSAT 1 30 Mar 02:14:25 02:18:21 26° 59° (ENE) 02:22:17 437.325
POLYITAN 1 30 Mar 02:25:23 02:29:19 37° 294° (WNW) 02:33:12 437.675
SPROUT 30 Mar 02:26:58 02:29:23 15° 273° (W) 02:31:49 437.525
QB50P2 30 Mar 02:30:18 02:34:05 32° 296° (WNW) 02:37:51 145.880/145.840
FO-29 30 Mar 02:33:32 02:37:36 19° 313° (NW) 02:41:23 435.910
DUCHIFAT 1 30 Mar 02:36:51 02:40:41 34° 295° (WNW) 02:44:29 145.980
AIST 2D 30 Mar 02:37:25 02:39:14 14° 301° (WNW) 02:41:01 435.315
BUGSAT 1 30 Mar 02:38:04 02:42:17 81° 288° (WNW) 02:46:25 437.445
Tancredo 1 30 Mar 02:49:12 02:51:14 16° 216° (SW) 02:53:17 437.200
Gurwin Techsat 1B 30 Mar 02:51:52 02:56:34 30° 94° (E) 03:01:13 435.225
AO-85 30 Mar 03:00:58 03:03:54 19° 20° (NNE) 03:06:50 145.980
AO-7 30 Mar 03:05:14 03:05:48 10° 76° (ENE) 03:06:22 .
ISS 30 Mar 03:05:44 03:07:38 14° 218° (SW) 03:09:31 437.550
O/OREOS (USA 219) 30 Mar 03:09:48 03:14:15 48° 248° (WSW) 03:18:41 437.305
BEESAT 3 30 Mar 03:11:34 03:13:52 15° 1° (N) 03:16:11 437.485
DX 1 30 Mar 03:12:31 03:13:36 11° 275° (W) 03:14:42 434.975-435.025
MOZHAYETS 4 30 Mar 03:17:49 03:22:03 38° 65° (ENE) 03:26:18
NANOSAT C BR1 30 Mar 03:26:06 03:28:18 14° 306° (NW) 03:30:30 145.865
BEESAT 30 Mar 03:32:20 03:37:07 78° 255° (WSW) 03:41:55 436.000
EO-79 30 Mar 03:33:34 03:35:07 12° 308° (NW) 03:36:39 145.935-145.965
BEESAT 2 30 Mar 03:34:59 03:37:21 15° 357° (N) 03:39:44 435.950
Oscar 19 30 Mar 03:47:58 03:53:07 67° 290° (WNW) 03:58:15 437.125/150
ITUPSAT 1 30 Mar 03:51:12 03:55:54 56° 259° (WSW) 04:00:38 437.325
ITAMSAT 1 30 Mar 04:04:02 04:08:15 24° 92° (E) 04:12:25 435.822/435.867
KKS-1 30 Mar 04:09:37 04:13:34 32° 63° (ENE) 04:17:33 437.445
BUGSAT 1 30 Mar 04:14:57 04:16:59 13° 306° (NW) 04:18:59 437.445
CUBESAT XI-V 30 Mar 04:20:01 04:24:01 30° 63° (ENE) 04:28:02 437.345
Gurwin Techsat 1B 30 Mar 04:31:36 04:36:46 51° 294° (WNW) 04:41:54 435.225
STARS 30 Mar 04:35:41 04:39:27 28° 61° (ENE) 04:43:14 437.465
AO-85 30 Mar 04:41:07 04:45:01 63° 42° (NE) 04:48:57 145.980
BEESAT 3 30 Mar 04:49:33 04:52:48 23° 25° (NNE) 04:56:02 437.485
AO-7 30 Mar 04:52:57 05:00:55 47° 100° (E) 05:08:49 .
MOZHAYETS 4 30 Mar 04:55:08 04:59:17 33° 265° (W) 05:03:26
BEESAT 2 30 Mar 05:13:24 05:16:31 20° 21° (NNE) 05:19:37 435.950
BEESAT 30 Mar 05:13:41 05:15:42 12° 275° (W) 05:17:45 436.000
M-CUBED/EXP-1 PRIME 30 Mar 05:18:17 05:21:14 20° 50° (NE) 05:24:20 437.505
Oscar 19 30 Mar 05:28:44 05:31:34 15° 311° (NW) 05:34:24 437.125/150
ITAMSAT 1 30 Mar 05:42:59 05:48:09 63° 291° (WNW) 05:53:15 435.822/435.867
KKS-1 30 Mar 05:45:51 05:50:03 39° 262° (W) 05:54:18 437.445
CUBESAT XI-V 30 Mar 05:56:56 06:01:17 42° 262° (W) 06:05:41 437.345
STARS 30 Mar 06:11:22 06:15:37 45° 261° (W) 06:19:56 437.465
Gurwin Techsat 1B 30 Mar 06:13:31 06:15:36 12° 315° (NW) 06:17:42 435.225
AO-85 30 Mar 06:22:06 06:25:03 21° 243° (WSW) 06:28:03 145.980
CUTE-I 30 Mar 06:22:15 06:23:50 11° 82° (E) 06:25:25 437.470
BEESAT 3 30 Mar 06:26:55 06:30:59 81° 45° (NE) 06:35:00 437.485
XW-2D 30 Mar 06:31:24 06:31:31 10° 85° (E) 06:31:38 145.860 - 145.880
XW-2B 30 Mar 06:36:26 06:37:38 11° 86° (E) 06:38:50 145.730 - 145.750
STRAND 1 30 Mar 06:41:54 06:46:13 28° 59° (ENE) 06:50:31 437.568
AO-7 30 Mar 06:45:53 06:53:54 56° 302° (WNW) 07:01:54 .
XW-2C 30 Mar 06:46:01 06:48:08 14° 89° (E) 06:50:15 145.795 - 145.815
BEESAT 2 30 Mar 06:50:56 06:55:00 64° 43° (NE) 06:59:02 435.950
M-CUBED/EXP-1 PRIME 30 Mar 06:51:17 06:55:12 69° 251° (WSW) 06:59:28 437.505
DOVE 4 30 Mar 06:56:38 07:01:25 33° 93° (E) 07:06:07 437.250
YUBILEINY 30 Mar 07:06:08 07:13:13 29° 79° (ENE) 07:20:17 435.215
ITAMSAT 1 30 Mar 07:23:59 07:26:40 14° 312° (NW) 07:29:21 435.822/435.867
XW-2F 30 Mar 07:34:13 07:37:47 41° 98° (E) 07:41:20 145.980 - 146.000
LilacSat-2 30 Mar 07:42:29 07:46:13 55° 101° (E) 07:49:54 437.200
NUDT-PHONESAT 30 Mar 07:48:15 07:51:52 49° 100° (E) 07:55:26 437.300
NO-84 30 Mar 07:49:56 07:52:40 43° 150° (SSE) 07:55:26 435.350 FM
CUTE-I 30 Mar 07:59:39 08:05:00 63° 102° (ESE) 08:10:17 437.470
KAITUO 1B 30 Mar 08:00:27 08:04:09 68° 102° (ESE) 08:07:50 145.475/437.950
XW-2D 30 Mar 08:02:33 08:06:21 89° 112° (ESE) 08:10:06 145.860 - 145.880
BEESAT 3 30 Mar 08:05:29 08:08:05 17° 246° (WSW) 08:10:39 437.485
XW-2B 30 Mar 08:08:37 08:12:24 82° 285° (WNW) 08:16:09 145.730 - 145.750
SEEDS 30 Mar 08:13:29 08:15:32 13° 86° (E) 08:17:35 437.485
XW-2C 30 Mar 08:19:02 08:22:46 63° 287° (WNW) 08:26:28 145.795 - 145.815
STRAND 1 30 Mar 08:20:01 08:25:06 58° 258° (WSW) 08:30:12 437.568
CUTE 1.7 + AOD 2 30 Mar 08:26:41 08:30:12 25° 93° (E) 08:33:42 437.475
BEESAT 2 30 Mar 08:29:17 08:32:26 22° 243° (WSW) 08:35:33 435.950
XW-2A 30 Mar 08:33:08 08:36:09 29° 96° (E) 08:39:08 145.665 - 145.685
DOVE 4 30 Mar 08:34:10 08:39:16 48° 293° (WNW) 08:44:17 437.250
HO-68 30 Mar 08:36:38 08:43:15 38° 96° (E) 08:49:50 435.675
PCSat 30 Mar 08:38:33 08:40:01 11° 101° (ESE) 08:41:29 145.827
AO-7 30 Mar 08:39:23 08:45:04 21° 326° (NW) 08:50:44 .
CUBEBUG 2 30 Mar 08:49:27 08:52:51 21° 90° (E) 08:56:09 437.445
YUBILEINY 30 Mar 09:00:24 09:09:09 81° 282° (WNW) 09:17:56 435.215
AO-73 30 Mar 09:07:12 09:08:30 11° 84° (E) 09:09:48 145.935
XW-2F 30 Mar 09:08:49 09:11:44 22° 297° (WNW) 09:14:39 145.980 - 146.000
LilacSat-2 30 Mar 09:17:34 09:20:10 18° 300° (WNW) 09:22:45 437.200
FO-29 30 Mar 09:20:30 09:26:32 28° 54° (NE) 09:32:08 435.910
AAUSAT CUBESAT 2 30 Mar 09:20:33 09:24:14 29° 95° (E) 09:27:53 437.432
NUDT-PHONESAT 30 Mar 09:22:53 09:25:30 19° 299° (WNW) 09:28:07 437.300
NO-84 30 Mar 09:27:20 09:30:09 58° 350° (N) 09:33:03 435.350 FM
KAITUO 1B 30 Mar 09:35:36 09:37:45 15° 301° (WNW) 09:39:53 145.475/437.950
PRISM 30 Mar 09:36:49 09:40:42 44° 68° (ENE) 09:44:39 437.425
XW-2D 30 Mar 09:38:22 09:39:58 12° 304° (WNW) 09:41:34 145.860 - 145.880
CUTE-I 30 Mar 09:40:16 09:44:42 27° 303° (WNW) 09:49:07 437.470
UWE-3 30 Mar 09:43:25 09:47:33 42° 98° (E) 09:51:33 435.000/436.395/437.385
XW-2B 30 Mar 09:44:44 09:45:58 11° 305° (NW) 09:47:11 145.730 - 145.750
SEEDS 30 Mar 09:47:36 09:51:50 83° 283° (WNW) 09:56:02 437.485
TIGRISAT 30 Mar 09:50:02 09:54:14 34° 64° (ENE) 09:58:23 435.000
Oscar 11 30 Mar 10:00:32 10:04:25 31° 95° (E) 10:08:15 .
UNISAT 6 30 Mar 10:01:09 10:05:35 44° 67° (ENE) 10:09:57 437.425
CUTE 1.7 + AOD 2 30 Mar 10:02:12 10:06:13 43° 292° (WNW) 10:10:14 437.475
XW-2A 30 Mar 10:06:02 10:08:52 25° 295° (WNW) 10:11:40 145.665 - 145.685
DELFI C3 30 Mar 10:06:13 10:07:55 12° 87° (E) 10:09:37 145.870
DOVE 4 30 Mar 10:14:03 10:15:45 12° 313° (NW) 10:17:27 437.250
ZACube-1 30 Mar 10:15:13 10:19:23 52° 100° (E) 10:23:26 437.345
PCSat 30 Mar 10:16:59 10:22:17 58° 121° (ESE) 10:27:38 145.827
HO-68 30 Mar 10:24:18 10:31:19 59° 297° (WNW) 10:38:18 435.675
CUBEBUG 2 30 Mar 10:25:30 10:29:50 53° 290° (WNW) 10:33:59 437.445
AO-7 30 Mar 10:32:23 10:34:47 12° 353° (N) 10:37:12 .
AO-73 30 Mar 10:41:14 10:45:29 85° 105° (ESE) 10:49:38 145.935
AAUSAT CUBESAT 2 30 Mar 10:55:56 10:59:44 35° 294° (WNW) 11:03:33 437.432
YUBILEINY 30 Mar 11:00:39 11:07:32 25° 308° (NW) 11:14:26 435.215
FO-29 30 Mar 11:03:15 11:10:57 89° 258° (WSW) 11:17:57 435.910
NO-84 30 Mar 11:05:01 11:07:54 60° 12° (NNE) 11:10:55 435.350 FM
RS-15 30 Mar 11:10:57 11:17:37 17° 92° (E) 11:24:21 29.354- 29.394
NANOSAT C BR1 30 Mar 11:11:53 11:15:12 22° 60° (ENE) 11:18:31 145.865
PRISM 30 Mar 11:12:54 11:16:12 23° 267° (W) 11:19:32 437.425
EO-79 30 Mar 11:18:42 11:22:18 27° 62° (ENE) 11:25:54 145.935-145.965
UWE-3 30 Mar 11:20:13 11:23:51 27° 298° (WNW) 11:27:25 435.000/436.395/437.385
SEEDS 30 Mar 11:24:48 11:26:53 14° 305° (NW) 11:28:57 437.485
TIGRISAT 30 Mar 11:26:31 11:30:52 38° 263° (W) 11:35:12 435.000
Oscar 11 30 Mar 11:36:39 11:40:36 36° 294° (WNW) 11:44:31 .
UNISAT 6 30 Mar 11:38:22 11:42:26 29° 266° (W) 11:46:28 437.425
DELFI C3 30 Mar 11:39:16 11:43:17 83° 285° (WNW) 11:47:17 145.870
AIST 2D 30 Mar 11:42:39 11:46:09 61° 73° (ENE) 11:49:39 435.315
POLYITAN 1 30 Mar 11:47:27 11:51:34 47° 68° (ENE) 11:55:41 437.675
ZACube-1 30 Mar 11:52:05 11:55:22 22° 300° (WNW) 11:58:37 437.345
QB50P2 30 Mar 11:52:12 11:56:23 55° 70° (ENE) 12:00:36 145.880/145.840
Oscar 19 30 Mar 11:56:07 11:58:21 13° 47° (NE) 12:00:36 437.125/150
DUCHIFAT 1 30 Mar 11:58:09 12:02:15 50° 69° (ENE) 12:06:23 145.980
BUGSAT 1 30 Mar 11:58:49 12:02:08 22° 60° (ENE) 12:05:27 437.445
PCSat 30 Mar 12:00:53 12:05:58 39° 323° (NW) 12:11:04 145.827
LO-87 30 Mar 12:01:13 12:04:17 24° 94° (E) 12:07:18 145.935 - 145.965
HO-68 30 Mar 12:13:06 12:17:43 19° 320° (NW) 12:22:21 435.675
AO-73 30 Mar 12:18:43 12:21:09 15° 304° (NW) 12:23:33 145.935
AO-7 30 Mar 12:20:08 12:24:10 15° 21° (NNE) 12:28:11 .
Gurwin Techsat 1B 30 Mar 12:41:19 12:44:50 18° 52° (NE) 12:48:21 435.225
NO-84 30 Mar 12:42:32 12:45:22 42° 211° (SSW) 12:48:24 435.350 FM
NANOSAT C BR1 30 Mar 12:46:26 12:50:37 54° 259° (W) 12:54:50 145.865
FO-29 30 Mar 12:50:54 12:56:44 24° 272° (W) 13:02:16 435.910
EO-79 30 Mar 12:53:49 12:57:55 43° 262° (W) 13:02:01 145.935-145.965
ESTCUBE 1 30 Mar 12:56:12 13:00:36 49° 100° (E) 13:05:00 437.505/2401.250
RS-15 30 Mar 13:15:31 13:27:10 58° 117° (ESE) 13:39:06 29.354- 29.394
DELFI C3 30 Mar 13:15:41 13:17:27 13° 305° (NW) 13:19:12 145.870
DX 1 30 Mar 13:16:01 13:18:01 13° 86° (E) 13:20:00 434.975-435.025
AIST 2D 30 Mar 13:18:01 13:19:46 13° 271° (W) 13:21:32 435.315
POLYITAN 1 30 Mar 13:24:06 13:27:35 24° 267° (W) 13:31:04 437.675
QB50P2 30 Mar 13:29:18 13:32:31 20° 269° (W) 13:35:45 145.880/145.840
Oscar 19 30 Mar 13:31:40 13:36:40 57° 68° (ENE) 13:41:43 437.125/150
BUGSAT 1 30 Mar 13:33:02 13:37:12 54° 259° (W) 13:41:24 437.445
LO-87 30 Mar 13:34:28 13:37:48 34° 293° (WNW) 13:41:07 145.935 - 145.965
DUCHIFAT 1 30 Mar 13:34:51 13:38:12 22° 268° (W) 13:41:34 145.980
